Theta_e
337 339 335 327 326 325 323 323 323 323 323 324 324 324 325 325 325 325 325 325 325 325 325 325 325 326 327 331 334 338 337 339 338 338 337 336 332 329 327 326 325 325 324
333 337 332 326 326 324 323 323 323 324 324 325 326 327 328 329 329 329 328 327 326 326 325 325 325 326 326 326 326 330 335 337 335 334 338 337 338 333 330 328 326 326 325
333 334 330 325 324 323 323 324 324 325 327 329 331 332 333 333 334 333 333 333 332 330 328 326 326 326 326 326 326 327 326 327 329 330 338 340 339 338 333 331 329 327 327
328 327 325 323 323 323 324 325 326 328 330 331 332 333 333 332 332 331 332 333 331 331 330 330 329 328 327 326 326 326 326 327 327 326 327 339 340 340 336 332 332 330 328
324 325 324 323 323 324 325 326 328 330 331 332 332 331 331 331 330 334 337 338 335 333 334 334 333 332 331 329 327 327 327 327 327 328 327 332 339 340 340 337 335 333 331
324 324 324 324 324 325 326 327 329 331 332 331 331 334 335 336 334 334 332 335 337 337 336 336 334 333 334 331 328 328 327 329 330 338 329 329 331 333 340 338 337 335 333
324 324 324 325 325 326 327 328 331 332 332 334 333 332 332 330 332 331 326 327 329 329 332 334 333 331 332 334 334 331 328 329 333 340 336 335 332 331 333 340 338 338 337
330 325 325 325 326 327 328 332 332 332 334 330 325 324 324 323 320 320 319 318 317 322 325 325 326 328 326 327 331 333 335 335 338 337 338 338 338 337 335 339 340 340 340
334 329 327 328 328 329 332 332 332 334 327 323 320 321 322 322 320 320 318 318 318 317 317 320 325 327 327 327 327 327 327 332 337 337 336 336 337 337 338 336 337 339 341
331 332 331 332 331 331 331 332 334 332 326 325 323 323 322 323 324 324 324 323 322 321 317 318 318 319 321 320 321 323 325 326 330 330 331 333 334 334 334 336 334 337 339
334 334 332 331 332 332 332 335 336 332 331 327 326 325 325 325 325 325 325 325 325 324 321 320 320 318 317 318 315 315 316 321 323 325 328 330 331 332 333 334 336 336 337
338 338 335 334 334 334 337 337 335 333 333 328 327 326 326 325 325 325 325 325 325 324 324 322 322 321 320 321 320 319 320 317 321 321 327 328 328 328 329 332 334 337 339
340 340 340 338 337 339 339 340 338 333 331 328 327 326 326 325 325 325 325 326 326 325 324 323 323 323 322 322 322 319 319 318 319 319 321 324 325 327 328 330 332 330 336
341 342 342 341 340 339 338 337 335 338 330 327 327 326 325 325 325 324 325 326 326 326 325 324 323 323 323 322 321 320 321 321 320 319 318 314 320 322 325 327 328 332 332
343 343 343 343 340 339 340 339 331 334 327 327 326 325 325 323 324 326 327 327 326 325 325 325 324 323 323 322 321 321 321 320 320 319 319 315 314 316 320 321 324 327 328
342 342 341 341 341 338 333 329 329 327 327 326 323 321 323 324 327 329 326 319 316 318 321 324 324 324 323 321 322 321 320 320 320 319 319 316 315 315 314 316 319 321 327
341 341 340 338 337 332 328 327 327 327 324 322 330 330 327 329 327 315 312 310 309 311 313 317 320 323 323 323 322 320 321 321 320 319 318 317 318 316 317 315 314 317 318
339 341 339 336 332 329 328 328 325 323 323 330 331 330 330 321 315 313 311 308 310 312 313 313 314 319 321 322 322 322 321 321 321 320 319 318 318 318 318 318 316 314 317
335 338 339 335 328 328 327 326 324 325 329 331 331 327 319 315 315 313 309 310 312 314 314 314 313 315 317 318 319 319 320 320 318 317 316 316 316 316 318 318 316 314 317
332 333 337 330 326 326 324 326 327 327 331 332 329 319 316 315 314 311 311 313 314 314 313 312 311 314 316 316 316 316 317 317 316 315 315 314 315 315 314 314 318 321 320
332 331 332 330 329 328 329 329 328 332 332 330 320 317 316 315 313 311 313 314 313 313 312 312 311 314 315 318 317 317 317 316 314 314 314 315 317 315 315 320 322 321 321
332 331 332 332 332 331 331 330 330 332 330 321 318 317 315 314 312 312 313 314 312 312 312 312 311 313 314 315 316 317 315 314 313 315 315 315 318 317 317 317 318 318 319
333 332 332 332 331 331 331 330 331 330 322 319 318 316 315 314 312 313 314 313 312 311 312 311 312 312 314 315 314 314 314 314 313 313 313 314 315 317 318 319 318 317 316
334 332 331 331 331 332 332 331 331 325 320 319 317 315 314 312 313 314 314 312 312 311 310 309 309 309 310 312 312 311 312 311 312 313 313 313 314 314 317 318 317 316 316
333 334 332 330 331 331 330 331 327 321 319 317 315 314 311 312 314 313 310 310 309 310 309 308 308 309 310 311 312 312 312 311 311 311 313 313 314 312 316 316 316 315 315
332 331 331 330 330 331 330 326 321 319 317 315 314 311 312 313 311 309 307 308 308 308 308 307 308 309 310 311 311 311 311 311 311 311 312 313 313 313 313 315 316 315 315
Wind_Speed
13 13 12 12 11 9 9 10 11 11 12 11 11 11 11 11 11 11 11 11 11 11 10 9 9 8 8 7 8 8 7 8 10 10 10 11 12 13 13 14 14 13 12
14 14 13 12 11 9 9 9 10 10 10 10 10 10 10 10 10 10 9 9 9 9 8 8 7 7 7 6 5 4 4 5 6 8 8 8 9 9 10 11 11 11 11
15 15 13 12 11 9 8 8 9 9 9 9 8 9 8 8 8 8 9 9 8 8 7 6 6 5 5 5 4 4 5 6 6 5 5 7 5 6 7 7 8 8 9
13 13 13 12 11 9 8 8 8 7 7 6 7 7 7 7 7 7 8 8 7 7 7 7 6 6 5 5 5 4 4 5 6 6 5 4 4 4 4 4 5 5 6
13 13 13 12 10 9 8 7 6 6 5 5 5 5 6 7 8 8 9 9 8 8 8 9 9 9 9 8 7 7 7 7 6 6 7 7 6 6 3 2 2 2 2
13 13 12 11 10 9 7 6 5 4 3 4 4 6 7 7 9 9 10 8 9 10 11 12 12 13 13 12 10 9 9 9 9 7 8 9 9 9 6 7 6 5 4
13 13 12 11 10 9 7 6 4 3 3 3 4 4 6 7 9 11 12 12 13 14 13 12 12 13 14 13 11 10 10 10 9 8 9 10 11 11 11 11 12 10 8
12 13 12 11 10 9 7 6 5 4 3 2 3 5 7 9 10 11 12 13 13 14 14 14 15 13 13 13 13 12 12 11 11 12 12 12 12 12 12 14 15 16 14
13 13 12 11 10 9 8 7 7 5 3 4 5 6 5 7 9 11 12 13 14 15 15 14 14 14 13 13 14 14 15 14 10 11 13 14 15 14 14 15 18 19 18
13 13 12 11 9 8 7 6 6 5 4 3 4 5 5 6 10 12 14 14 16 16 14 11 13 14 14 15 15 15 15 15 13 14 13 11 11 13 16 17 18 21 22
16 14 12 11 10 9 8 6 5 5 2 1 3 3 4 6 9 11 13 15 17 19 16 16 16 15 14 16 18 18 16 13 15 16 16 14 14 13 14 15 17 21 23
15 14 13 13 11 10 9 7 6 5 4 3 3 4 5 8 11 14 15 16 18 18 16 15 16 15 15 15 15 15 13 14 12 15 13 15 15 16 15 16 17 18 19
13 11 11 12 11 11 9 8 7 7 6 6 7 7 9 12 15 18 20 21 21 21 21 21 20 18 16 16 15 16 17 15 15 15 15 16 14 13 15 15 18 16 16
13 13 12 13 12 11 10 10 10 9 8 9 9 10 12 15 18 20 21 24 25 24 24 23 22 23 22 22 21 20 18 17 15 16 17 21 18 15 14 14 15 19 24
14 13 13 13 11 11 14 13 11 11 10 9 10 12 15 18 20 23 25 24 24 24 26 27 27 26 26 26 23 22 21 21 21 19 20 20 21 22 19 16 16 15 18
15 14 12 12 13 13 9 10 10 10 9 9 12 17 20 20 22 25 26 27 28 27 27 26 26 27 27 26 26 25 24 24 22 24 20 22 23 21 22 21 18 19 17
13 13 11 12 10 8 9 10 10 11 9 12 16 17 18 20 24 26 28 29 27 26 26 26 25 25 24 24 27 26 25 25 24 24 24 24 22 29 28 25 23 21 21
11 14 11 9 10 10 12 12 12 10 12 15 17 16 19 21 24 28 31 29 27 27 27 27 27 22 21 20 20 21 21 23 26 26 26 27 24 27 29 30 26 24 23
7 11 12 11 13 14 13 13 13 14 17 19 15 18 19 22 27 31 30 28 27 27 28 28 26 22 22 24 24 24 22 21 21 21 29 32 32 30 30 32 34 27 22
7 8 12 13 14 15 15 15 16 19 21 17 17 18 21 24 29 32 30 28 29 30 27 25 26 22 21 21 22 24 23 21 19 20 22 25 25 28 32 34 20 18 18
11 11 14 15 15 16 16 17 19 21 19 18 17 19 23 28 33 33 30 32 33 28 27 26 26 21 16 15 15 16 16 14 16 21 19 13 13 17 17 15 13 15 15
16 13 14 15 16 17 18 18 20 22 21 17 19 24 27 32 34 32 31 32 31 27 24 23 21 19 16 15 13 13 16 16 17 10 13 12 9 9 14 15 14 12 12
21 17 15 14 14 15 18 21 22 25 20 23 27 29 32 35 33 31 31 30 28 25 20 23 20 18 18 15 14 14 13 16 15 11 10 8 11 10 10 10 11 11 11
20 19 16 14 15 17 21 21 26 22 24 28 29 33 36 35 32 31 32 31 30 27 25 27 26 22 20 20 17 17 17 16 11 12 9 9 10 6 10 10 11 9 8
17 18 17 17 16 19 22 25 22 23 27 28 32 36 35 33 32 33 32 33 31 23 23 21 21 19 17 20 21 21 17 15 16 14 16 10 8 11 10 10 10 9 8
12 13 16 19 20 20 22 19 22 25 27 32 36 34 33 32 31 29 27 20 19 20 19 18 18 18 17 23 19 17 17 18 15 15 14 14 11 10 11 9 10 10 10
Wind_Direction
156 160 151 142 139 127 113 105 98 93 89 88 86 81 75 71 69 67 62 59 57 56 52 50 45 41 42 44 46 50 46 40 33 33 37 41 45 50 53 56 58 57 58
176 164 154 147 137 129 117 109 102 96 91 83 77 69 63 60 54 49 50 49 50 51 48 45 41 32 25 24 22 9 1 360 10 24 21 19 28 37 45 52 59 58 59
158 159 153 143 142 135 122 111 99 89 82 76 68 61 53 47 43 39 35 33 30 31 32 32 29 23 16 7 357 345 330 322 325 343 5 11 3 20 30 40 49 61 65
151 155 152 146 144 136 126 113 99 91 78 63 52 43 36 34 33 34 30 26 23 21 15 11 4 357 347 341 330 320 309 303 303 306 310 323 349 344 7 24 30 42 60
149 156 153 147 142 138 132 119 113 91 71 54 47 41 37 32 27 30 25 24 21 18 11 1 352 343 333 323 315 313 307 298 290 288 284 283 293 304 281 319 334 352 30
153 155 153 149 147 146 138 128 114 98 76 66 55 45 39 38 29 20 15 7 358 355 350 345 343 345 342 333 322 314 307 299 291 290 277 272 276 280 274 256 258 271 278
156 160 160 156 156 150 146 143 137 124 95 72 60 43 36 27 27 19 11 12 6 357 356 353 354 351 347 345 337 327 312 299 289 284 277 273 268 269 265 257 254 256 261
164 169 166 163 164 161 164 164 154 136 111 73 52 59 53 51 33 23 13 10 8 357 349 345 348 352 349 348 351 343 328 313 303 289 281 275 272 270 270 257 256 255 253
169 172 173 174 177 176 180 173 160 149 137 90 63 63 57 50 37 23 13 10 4 353 342 345 347 343 345 340 336 331 327 329 318 304 295 286 273 271 266 265 263 256 251
166 171 177 180 183 182 186 179 166 170 157 92 66 58 56 32 18 5 360 355 351 351 345 347 342 335 332 333 328 320 315 312 309 308 305 305 288 276 268 265 261 255 252
168 171 177 179 181 181 181 194 193 191 190 146 40 27 15 360 351 345 342 341 337 336 339 330 337 336 323 327 326 323 317 314 308 302 298 296 289 287 276 265 263 256 248
176 178 181 181 185 186 190 196 214 222 243 273 308 318 321 327 328 326 321 319 319 321 323 314 318 323 314 313 319 322 318 315 314 305 300 289 287 289 285 272 266 258 245
190 193 193 192 197 199 206 222 230 243 252 257 281 295 307 315 321 317 309 310 312 307 305 303 301 303 299 300 306 308 308 307 310 303 293 292 291 285 278 273 260 259 254
207 210 219 214 217 220 232 248 249 250 250 259 279 297 308 314 316 315 311 310 309 299 292 288 286 287 291 292 292 294 295 298 298 305 293 291 291 291 286 279 271 262 259
234 233 234 233 256 253 253 253 248 244 254 273 291 306 313 314 313 313 310 309 305 297 290 286 282 278 282 286 286 288 286 289 289 292 295 287 287 284 284 287 282 282 275
246 250 254 251 255 263 240 237 237 246 265 290 311 314 310 304 303 307 306 304 301 296 291 289 286 282 278 273 277 275 275 279 273 289 280 280 279 281 285 280 280 284 283
246 246 260 272 265 239 232 234 244 265 287 310 312 305 298 298 308 315 320 317 311 306 299 294 291 288 283 279 274 267 274 277 272 274 268 268 274 274 278 284 280 273 276
249 250 255 260 246 233 238 247 259 276 298 303 311 302 302 308 318 322 324 321 316 313 308 301 293 285 280 276 272 271 271 275 277 277 272 269 271 273 278 282 284 275 267
247 250 258 244 243 247 253 261 271 290 294 300 308 305 310 319 322 327 326 323 320 317 313 306 298 293 283 275 272 275 274 274 278 280 280 279 277 274 273 275 281 271 259
313 283 241 239 242 245 259 265 274 281 302 311 307 311 317 324 329 329 326 323 322 320 316 309 305 297 290 286 279 271 269 274 278 286 288 288 280 274 271 272 261 249 245
298 280 252 250 246 251 261 267 278 294 302 307 307 316 325 328 327 327 325 323 324 321 318 315 311 304 302 294 286 282 278 274 285 291 287 293 281 268 256 248 237 237 247
287 288 273 254 248 257 266 274 279 295 307 303 316 321 323 323 322 321 318 316 318 319 316 319 317 299 293 285 281 283 282 282 295 305 290 291 270 256 242 236 233 234 237
275 287 288 262 265 270 274 281 292 306 305 309 312 316 320 319 318 315 310 312 311 313 308 315 316 298 290 281 279 276 285 282 301 298 308 270 259 245 236 230 226 227 230
274 287 299 290 282 279 287 287 297 301 305 309 313 317 316 316 315 310 310 309 304 306 301 304 304 293 285 277 275 280 277 274 289 292 298 316 263 261 239 227 220 222 229
275 287 294 293 284 283 289 291 297 301 306 310 315 315 314 314 308 308 309 305 306 306 304 308 304 290 282 276 273 273 268 266 267 267 284 295 311 258 240 236 227 235 240
286 296 291 283 283 292 293 294 299 305 311 313 313 314 315 312 311 312 317 324 325 320 318 320 313 294 283 273 266 278 274 271 271 272 270 278 280 290 259 237 238 238 238